Regional Weather Roundup
Issued by NWS Sterling, VA

Home | Current Version | Previous Version | Graphics & Text | Print | Product List | Glossary On
Versions: 1 2 3 4 5 6 7 8 9 10 11 12 13 14 15 16 17 18 19 20 21 22 23 24 25 26 27 28 29 30 31 32 33 34 35 36 37 38 39 40 41 42 43 44 45 46 47 48 49
000
ASUS41 KLWX 031010
RWRLWX

REGIONAL WEATHER ROUNDUP
NATIONAL WEATHER SERVICE BALTIMORE MD/WASHINGTON DC
600 AM EDT WED JUN 03 2015

Note: "FAIR" indicates few or no clouds below 12,000 feet
with no significant weather and/or obstructions to visibility.
 TC=TEMPERATURE CELSIUS

 * =Non NWS site. Station does not report precipitation (e.g. rain,
    snow, etc.), thunder, or fog.

DCZ001-MDZ009-015-VAZ040>042-051-053>054-031100-
WASHINGTON METRO

CITY           SKY/WX    TMP DP  RH WIND       PRES   REMARKS
WASHINGTON NAT CLOUDY    60  55  83 NE13      30.14R
DULLES         CLOUDY    56  54  93 NE7       30.14R
ANDREWS AFB    CLOUDY    55  55 100 NE9       30.12R FOG
FT BELVOIR     CLOUDY    57  55  94 VRB1      30.13S FOG
QUANTICO       CLOUDY    59  55  87 E16G23    30.13R
COLLEGE PARK*  CLOUDY    55  55 100 NE3       30.14R
LEESBURG*      CLOUDY    57  57 100 NE5       30.15R
MANASSAS*        N/A    N/A N/A N/A MISG        N/A
GAITHERSBURG*  CLOUDY    55  52  88 E3        30.18R

$$

MDZ006>007-011-014-031100-
BALTIMORE METRO

CITY           SKY/WX    TMP DP  RH WIND       PRES   REMARKS
BWI AIRPORT    CLOUDY    56  54  93 NE10      30.14R
MD SCIENCE CTR   N/A     57  54  89 MISG      30.16R
MARTIN STATE   MOCLDY    57  55  94 NE5       30.16S
ANNAPOLIS      CLOUDY    57  57 100 VRB5      30.14R FOG
FORT MEADE*    CLOUDY    54  52  94 E3        30.17R

$$

MDZ012-015-019>023-031100-
MARYLAND EASTERN SHORE

CITY           SKY/WX    TMP DP  RH WIND       PRES   REMARKS
OCEAN CITY     HVY RAIN  58  56  93 NE15      30.10R FOG
SALISBURY      LGT RAIN  56  55  97 NE14      30.10R FOG
BAY BRIDGE AP*   N/A    N/A N/A N/A E7        30.14R
CAMBRIDGE*     CLOUDY    57  54  88 NE7       30.11R
EASTON*        CLOUDY    57  57 100 NE14      30.16R

$$

MDZ017>025-031100-
SOUTHERN MARYLAND

CITY           SKY/WX    TMP DP  RH WIND       PRES   REMARKS
PATUXENT RIVER DRIZZLE   58  56  93 NE10      30.11R FOG
ST INIGOES     CLOUDY    59  56  89 NE10      30.10R
LEONARDTOWN*   CLOUDY    55  54  94 NE5       30.12S

$$

MDZ003>005-031100-
NORTH CENTRAL MARYLAND

CITY           SKY/WX    TMP DP  RH WIND       PRES   REMARKS
FREDERICK*     CLOUDY    55  55 100 N6        30.18R
HAGERSTOWN APT CLOUDY    58  53  84 NE6       30.15S
WESTMINSTER*   CLOUDY    55  54  94 E6        30.15S

$$

MDZ501>502-031100-
WESTERN MARYLAND

CITY           SKY/WX    TMP DP  RH WIND       PRES   REMARKS
OAKLAND*       FOG       50 N/A N/A SE10G18   30.13S VSB 3/4
CUMBERLAND*    CLOUDY    59  54  82 N3        30.18S

$$

VAZ025>031-031100-
SHENANDOAH VALLEY

CITY           SKY/WX    TMP DP  RH WIND       PRES   REMARKS
WINCHESTER*    CLOUDY    55  55 100 CALM      30.15S
FRONT ROYAL*   CLOUDY    55  54  94 CALM      30.13S
LURAY*         CLOUDY    57  57 100 N9        30.13S
NEW MARKET*    CLOUDY    55  54  95 NE7       30.12S
STAUNTON*      DRIZZLE   58  56  92 N7        30.13S
WAYNESBORO*    CLOUDY    55  55 100 N5        30.12R

$$

WVZ021-048>050-054>055-031100-
EASTERN WEST VIRGINIA PANHANDLE

CITY           SKY/WX    TMP DP  RH WIND       PRES   REMARKS
MARTINSBURG    CLOUDY    58  55  90 CALM      30.15S
PETERSBURG*    CLOUDY    56  54  92 N3        30.15R

$$

VAZ036>039-050-031100-
CENTRAL FOOTHILLS

CITY           SKY/WX    TMP DP  RH WIND       PRES   REMARKS
CHARLOTTESVILL CLOUDY    57  55  93 NE10      30.11S
CULPEPER*      CLOUDY    56  55  97 NE5       30.14S
ORANGE*        RAIN      57  55  94 N6        30.13R
GORDONSVILLE*  CLOUDY    55  55 100 NE9       30.10S FOG
WARRENTON*     CLOUDY    57  57 100 N6        30.13S FOG

$$

VAZ055>057-031100-
NORTH AND CENTRAL PIEDMONT

CITY           SKY/WX    TMP DP  RH WIND       PRES   REMARKS
FREDERICKSBRG* CLOUDY    60  60 100 NE6       30.11R
STAFFORD*      CLOUDY    56  55  95 N5        30.16R FOG

$$

NCZ024-NYZ072-PAZ021-071-VAZ022-071-031100-
OTHER REGIONAL OBSERVATIONS

CITY           SKY/WX    TMP DP  RH WIND       PRES   REMARKS
NEW YORK CITY  CLOUDY    53  49  86 NE7       30.23R
PHILADELPHIA   CLOUDY    55  51  86 NE9       30.17S
PITTSBURGH     MOCLDY    54  52  93 NE8       30.12R
ROANOKE        LGT RAIN  58  58 100 SE5       30.10R FOG
RICHMOND       DRIZZLE   60  57  89 NE8       30.08R FOG
RALEIGH        CLOUDY    64  61  90 NE6       30.02R

$$

ANZ530>537-031100-
MARINE OBSERVATIONS

STATION/POSITION TIME  TEMP    WIND        PRES
                       AIR SEA DIR/SP/G
                 (UTC) (F)     (DEG/KT/KT) (MB)
THOMAS PT LIGHT  1000   57 71   60/ 12/ 14 1021.0R
BALT KEY BRIDGE  0900   58      60/ 13/ 15 1020.3F
COVE POINT       0900   58      50/ 13/ 18 1020.0F
LEWISETTA        0900   60 71              1018.6R
SOLOMONS ISLAND  0900      73                N/A
PINEY POINT      0900           70/  9/ 12   N/A

$$



USA.gov is the U.S. government's official web portal to all federal, state and local government web resources and services.